Location: Mentone
(34.5413°N, 85.5351°W)
Time: 16:46:06
(UTC-05:00)

Transit 2A Rocket - Visible Passes

Search period start: 25 April 2015 00:00
Search period end: 05 May 2015 00:00
Orbit: 585 x 921 km, 66.7° (Epoch: 25 April)

Date Brightness Start Highest point End Pass type
(mag) Time Alt. Az. Time Alt. Az. Time Alt. Az.
25 Apr 5.3 20:44:40 10° SSW 20:50:36 89° ESE 20:56:48 10° NNE visible
25 Apr 8.1 22:30:34 10° W 22:34:14 16° NW 22:37:41 10° N visible
26 Apr 5.5 20:02:52 10° S 20:08:35 53° ESE 20:14:34 10° NE visible
26 Apr 7.6 21:46:46 10° WSW 21:51:40 25° NW 21:56:32 10° N visible
27 Apr 7.9 04:51:59 10° N 04:56:00 20° NE 04:59:56 10° E visible
27 Apr 6.8 21:03:40 10° SW 21:09:16 39° NW 21:14:58 10° NNE visible
28 Apr 8.3 04:11:13 10° NNE 04:13:23 12° NE 04:15:46 10° ENE visible
28 Apr 5.9 20:21:06 10° SW 20:27:01 64° WNW 20:33:08 10° NNE visible
28 Apr 8.6 22:09:10 10° WNW 22:11:03 11° NW 22:12:35 10° NNW visible
29 Apr 6.2 05:09:35 10° NNW 05:14:58 48° ENE 05:19:52 10° SE visible
29 Apr 8.2 21:24:15 10° W 21:28:22 18° NW 21:32:18 10° N visible
30 Apr 7.2 04:27:53 10° N 04:32:38 28° NE 04:37:05 10° ESE visible
30 Apr 7.6 20:40:41 10° WSW 20:45:51 28° NW 20:50:59 10° N visible
01 May 7.9 03:46:33 10° N 03:50:07 17° NE 03:53:41 10° E visible
01 May 6.7 19:57:43 10° SW 20:03:29 45° WNW 20:09:20 10° NNE visible
02 May 8.4 03:06:27 10° NNE 03:07:28 11° NE 03:08:45 10° NE visible
02 May 5.2 04:45:51 10° NNW 04:51:22 74° ENE 04:56:20 10° SSE visible
02 May 8.5 21:02:20 10° WNW 21:05:08 13° NW 21:07:37 10° NNW visible
03 May 6.3 04:03:57 10° NNW 04:09:09 41° ENE 04:13:55 10° SE visible
03 May 8.2 20:18:00 10° W 20:22:29 20° NW 20:26:50 10° N visible
04 May 7.3 03:22:20 10° N 03:26:45 24° NE 03:30:58 10° ESE visible
04 May 5.4 05:04:36 10° NW 05:09:37 39° WSW 05:14:08 10° S visible
